Regional Weather Roundup
Issued by NWS

Home | Current Version | Previous Version | Graphics & Text | Print | Product List | Glossary On
Versions: 1 2 3 4 5 6 7 8 9 10 11 12 13 14 15 16 17 18 19 20 21 22 23 24 25 26 27 28 29 30 31 32 33 34 35 36 37 38 39 40 41 42 43 44 45 46 47 48 49 50
000
ASUS43 KIND 281209
RWRIN

WEATHER ROUNDUP FOR INDIANA
NATIONAL WEATHER SERVICE INDIANAPOLIS IN
700 AM EST FRI NOV 28 2014

NOTE: "FAIR" INDICATES FEW OR NO CLOUDS BELOW 12,000 FEET WITH NO
SIGNIFICANT WEATHER AND/OR OBSTRUCTIONS TO VISIBILITY.

* - STATION DOES NOT REPORT WEATHER SUCH AS PRECIPITATION OR FOG.

+ - STATION NOT QUALITY CONTROLLED BY THE NATIONAL WEATHER SERVICE.
    USE DATA WITH CAUTION...ESPECIALLY DEWPOINT AND RELATIVE
    HUMIDITY OBSERVATIONS.

INZ001>003-010>013-019-020-281300-
NORTHWEST INDIANA

CITY           SKY/WX    TMP DP  RH WIND       PRES   REMARKS
GARY /AIRPORT/ CLOUDY    23  14  68 S5        30.33F WCI  17
KNOX *+        CLOUDY    21  15  78 S3        30.34S
LA PORTE +     CLOUDY    22  17  78 S3        30.33S
6HR MIN TEMP:  18; 6HR MAX TEMP:  23;

MICHIGAN CITY+ CLOUDY    21  12  68 CALM      30.33F
MONTICELLO +   CLOUDY    21  14  73 CALM      30.35S
RENSSELAER +   CLOUDY    21  21 100 S6        30.34F WCI  14
VALPARAISO     CLOUDY    20  14  77 S6        30.33F WCI  12
6HR MIN TEMP:  15; 6HR MAX TEMP:  20;


$$

LMZ046-743>745-281300-
SOUTHERN LAKE MICHIGAN

STATION/POSITION TIME  TEMP WIND        PRES
                       AIR  DIR/SP/G
                 (UTC) (F)  (DEG/KT/KT) (MB)
MICHIGAN CITY    1200   21  170/  7/  9   N/A

$$

INZ004-005-014>016-021>024-281300-
NORTH CENTRAL INDIANA

CITY           SKY/WX    TMP DP  RH WIND       PRES   REMARKS
GOSHEN         CLOUDY    20  16  84 SE3       30.34F
6HR MIN TEMP:   9; 6HR MAX TEMP:  20;

LOGANSPORT +   CLOUDY    21  18  86 S5        30.35F WCI  15
PERU/GRISSOM   CLOUDY    21  21  98 S3        30.34F
6HR MIN TEMP:  20; 6HR MAX TEMP:  24;

ROCHESTER +    CLOUDY    23  18  80 CALM      30.34F
SOUTH BEND     CLOUDY    20  16  84 S5        30.33F WCI  13
6HR MIN TEMP:  15; 6HR MAX TEMP:  23;

WARSAW +       CLOUDY    21  16  79 CALM      30.34F

$$

INZ006>009-017-018-025>027-281300-
NORTHEAST INDIANA

CITY           SKY/WX    TMP DP  RH WIND       PRES   REMARKS
ANGOLA *+      CLOUDY    19  14  79 W3        30.33F
AUBURN +       CLOUDY    21  16  79 SW3       30.36F
FORT WAYNE     CLOUDY    21  14  74 W3        30.37F
6HR MIN TEMP:  17; 6HR MAX TEMP:  22;

HUNTINGTON +   CLOUDY    22  18  86 CALM      30.36F
6HR MIN TEMP:  18; 6HR MAX TEMP:  22;


$$

INZ028-029-035-036-043>045-051>053-281300-
WEST CENTRAL INDIANA

CITY           SKY/WX    TMP DP  RH WIND       PRES   REMARKS
GREENCASTLE +  CLOUDY    21  18  86 S6        30.36F WCI  14
LAFAYETTE      CLOUDY    20  16  84 SE3       30.35F
6HR MIN TEMP:  15; 6HR MAX TEMP:  20;

TERRE HAUTE    CLOUDY    22  16  78 S5        30.39F WCI  16
6HR MIN TEMP:  16; 6HR MAX TEMP:  22;


$$

INZ030>032-037>040-046>048-054>057-064-065-281300-
CENTRAL INDIANA

CITY           SKY/WX    TMP DP  RH WIND       PRES   REMARKS
CP ATTERBURY + CLOUDY    25  19  80 CALM      30.39S
COLUMBUS       CLOUDY    25  19  80 CALM      30.40
FRANKFORT +    PTCLDY    22  19  88 SE5       30.36S WCI  15
GREENWOOD *+   CLOUDY    23  16  74 S6        30.37  WCI  16
INDIANAPOLIS   CLOUDY    21  17  84 S6        30.36F WCI  13
6HR MIN TEMP:  19; 6HR MAX TEMP:  24; 6HR PCP: TRACE;

-EAGLE CREEK   CLOUDY    21  18  88 SW5       30.36F WCI  15
6HR MIN TEMP:  19; 6HR MAX TEMP:  22;

KOKOMO *+      CLOUDY    21  18  86 SE5       30.34F WCI  15
MARION +         N/A     22  19  88 SW3       30.36F
MT COMFORT *+  MOCLDY    23  19  86 SE3       30.36F
SHELBYVILLE    CLOUDY    25  18  74 S3        30.37F
6HR MIN TEMP:  23; 6HR MAX TEMP:  27;

ZIONSVILLE +   CLOUDY    22  18  85 S5        30.36F WCI  16
6HR MIN TEMP:  16; 6HR MAX TEMP:  22;


$$

INZ033-034-041-042-049-050-058-059-281300-
EAST CENTRAL INDIANA

CITY           SKY/WX    TMP DP  RH WIND       PRES   REMARKS
MUNCIE         CLOUDY    22  18  85 SW5       30.36F WCI  16
6HR MIN TEMP:  21; 6HR MAX TEMP:  24;


$$

INZ060-061-067>069-081>083-085>088-281300-
SOUTHWEST INDIANA

CITY           SKY/WX    TMP DP  RH WIND       PRES   REMARKS
EVANSVILLE     CLOUDY    27  22  81 CALM      30.43R
6HR MIN TEMP:  22; 6HR MAX TEMP:  27;

HUNTINGBURG *+ CLOUDY    25  19  80 SE3       30.42S
6HR MIN TEMP:  21; 6HR MAX TEMP:  25;

WASHINGTON +   CLOUDY    24  21  86 S5        30.41S WCI  19
6HR MIN TEMP:  20; 6HR MAX TEMP:  24;


$$

INZ062-063-066-070>080-084-089>092-281300-
SOUTH CENTRAL AND SOUTHEAST INDIANA

CITY           SKY/WX    TMP DP  RH WIND       PRES   REMARKS
BLOOMINGTON    CLOUDY    21  18  88 S5        30.38S WCI  15
6HR MIN TEMP:  15; 6HR MAX TEMP:  21;


$$




USA.gov is the U.S. government's official web portal to all federal, state and local government web resources and services.